Flag for Pakistan Weather past 2 weeks in Rawalpindi, Pakistan

Now
88 °F

Haze.


Feels Like: 86 °F
Forecast: 61 / 92 °F
Wind: 14 mph from West

Location: Islamabad Airport

Current Time: Apr 21, 2015 at 2:54:21 PM

Latest Report: Apr 21, 2015 at 2:00 PM


Visibility: 3 mi

Pressure: 29.86 "Hg

Humidity: 33%

Dew point: 55 °F

Location of RawalpindiLocation

Historic Weather in Rawalpindi — Graph

°F

Rawalpindi temperature yesterday

Maximum temperature yesterday: 84 °F (at 2:00 PM)
Minimum temperature yesterday: 66 °F (at 2:00 AM)
Average temperature yesterday: 75 °F

Past Weeks' High & Low Weather Summary

 TemperatureHumidityPressure
High91 °F (Apr 12, 4:00 PM)100% (Apr 16, 4:00 AM)30.15 "Hg (Apr 16, 4:00 AM)
Low59 °F (Apr 8, 4:00 AM)30% (Apr 12, 4:00 PM)29.71 "Hg (Apr 18, 3:00 PM)
Average74 °F61%29.93 "Hg
* Reported Apr 6 1:00 PM — Apr 21 1:00 PM, Rawalpindi, Weather by CustomWeather, © 2015

Note: Actual official high and low records may vary slightly from our data, if they occured in-between our weather recording intervals... More about our weather records

Advertising

Rawalpindi weather history for previous 24 hours

 ConditionsComfort  
Time TempWeatherWind HumidityBarometerVisibility
1:00 PM
Tue, Apr 21
86 °FHaze.12 mph40%29.89 "Hg2 mi
12:00 PM86 °FHaze.9 mph43%29.89 "Hg2 mi
11:00 AM82 °FHaze.12 mph48%29.92 "Hg2 mi
10:00 AM79 °FHaze.5 mph54%29.92 "Hg2 mi
9:00 AM75 °FHaze.5 mph57%29.92 "Hg2 mi
8:00 AM70 °FHaze.5 mph78%29.89 "Hg2 mi
7:00 AM66 °FSunny.No wind78%29.89 "Hg4 mi
6:00 AM64 °FPassing clouds.No wind88%29.86 "Hg4 mi
4:00 AM64 °FClear.No wind78%29.83 "Hg4 mi
3:00 AM66 °FClear.No wind78%29.83 "Hg4 mi
2:00 AM68 °FClear.No wind73%29.83 "Hg4 mi
1:00 AM70 °FClear.No wind69%29.86 "Hg4 mi
12:00 AM72 °FClear.5 mph69%29.86 "Hg4 mi
11:00 PM
Mon, Apr 20
73 °FClear.7 mph61%29.86 "Hg5 mi
10:00 PM73 °FClear.9 mph61%29.86 "Hg5 mi
9:00 PM75 °FClear.12 mph57%29.86 "Hg5 mi
8:00 PM77 °FWarm.12 mph57%29.83 "Hg5 mi
7:00 PM81 °FPassing clouds.12 mph48%29.83 "Hg5 mi
5:00 PM84 °FSunny.18 mph40%29.83 "Hg10 mi
4:00 PM84 °FSunny.18 mph37%29.83 "Hg10 mi
3:00 PM84 °FSunny.18 mph37%29.86 "Hg10 mi
2:00 PM84 °FSunny.18 mph37%29.86 "Hg10 mi
Weather by CustomWeather, © 2015

See weather overviewHow to use our weather pages